[Date Prev][Date Next][Thread Prev][Thread Next][Date Index][Thread Index]

[jamsat-news:1213] jas2info #168



========================   最新情報   ==============================

        Last updated :Sat.29-Jan.-2000 19:10 (JST) #168

====================================================================
   
  1)アマチュア通信衛星情報 FOシリーズの軌道要素、テレメトリ、
   QSOの状況等をまとめてみました.
         
 ■ 軌道要素1:「jamsat−keps:963」より              
        SB KEPS @ AMSAT  $ORB00028.N
            2Line Orbital Elements 00028.AMSAT

HR AMSAT ORBITAL ELEMENTS FOR AMATEUR SATELLITES IN NASA FORMAT
>FROM WA5QGD FORT WORTH,TX January 28, 2000
SEND SUBSCRIBE/UNSUBSCRIBE TO majordomo@amsat.org ONLY
BID: ORB00028.N

 DECODE 2-LINE ELSETS WITH THE FOLLOWING KEY:
 1 AAAAAU 00  0  0 BBBBB.BBBBBBBB  .CCCCCCCC  00000-0  00000-0 0  DDDZ
 2 AAAAA EEE.EEEE FFF.FFFF GGGGGGG HHH.HHHH III.IIII JJ.JJJJJJJJKKKKKZ
 KEY: A-CATALOGNUM B-EPOCHTIME C-DECAY D-ELSETNUM E-INCLINATION F-RAAN
 G-ECCENTRICITY H-ARGPERIGEE I-MNANOM J-MNMOTION K-ORBITNUM Z-CHECKSUM
 TO ALL RADIO AMATEURS BT
 
 FO-29
 1 24278U 96046B   00025.18304658  .00000042  00000-0  81707-4 0  3032
 2 24278  98.5870 311.9261 0350604 239.4909 117.1194 13.52698728169820
  
 ■ 軌道要素2:「jamsat−keps:962」より                         
         SB KEPS @ AMSAT  $ORB00028.O
             Orbital Elements  00028.OSCAR

HR AMSAT ORBITAL ELEMENTS FOR OSCAR SATELLITES
>FROM WA5QGD FORT WORTH,TX January 28, 2000
SEND SUBSCRIBE/UNSUBSCRIBE TO majordomo@amsat.org ONLY
BID: ORB00028.O
TO ALL RADIO AMATEURS BT


  Satellite: FO-29
 Catalog number: 24278
 Epoch time:      00025.18304658
 Element set:     303
 Inclination:       98.5870 deg
 RA of node:       311.9261 deg
 Eccentricity:    0.0350604
 Arg of perigee:   239.4909 deg
 Mean anomaly:     117.1194 deg
 Mean motion:   13.52698728 rev/day
 Decay rate:        4.2e-07 rev/day^2
 Epoch rev:           16982
 Checksum:              314
 
-------------------   軌道要素 の Checksum 論議  ------------------------

 2)[jamsat-bb:5001]において7N1JVW局の 藤田 忠義氏の問題提起により [jamsat-bb:5003]に
   JO2OXL局の落合 卓史氏、[jamsat-bb:5004]にJI1OWP局の池田 弘人氏が投稿されてましたので
   転載させていただきました.

*[jamsat-bb:5001]、[jamsat-bb:5003]において

  JO2OXL落合です.

チェックサムについて,私の考えを書いてみます.
チェックサムのサムはsumで,合計の意味ではないでしょうか
ここで,例として,

FO-20
1 20480U 90013C   00019.45637539  .00000011  00000-0  93132-4 0  1984
2 20480  99.0296 178.0611 0541268  34.4145 329.0788 12.83262090466075

で考えてみます.

まず,それぞれの行の数字のみを足してみます.
(行頭の1,2を含めて.もちろん最後のチェックサムは含めないで.)
すると,一行目は122,二行目は215になります.

次に,
(Letters, blanks, periods, plus signs = 0; minus signs =1)
は,文字,スペース,ピリオド(.),プラス記号(+)は0,マイナス記号(-)は1を意味
すると考えて,さらに加えていきます.
すると,一行目にはマイナスが2個あるので 122+2=124,二行目には加えるものがな
く,215となります.
これらの数字の一の位を取ってみると,それぞれ4と5になり,チェックサムと一致し
ます.
他の軌道要素ではまだ試していませんが,これでいいのではないでしょうか.

また,私が使っているWinOrbitでは,チェックサムがおかしいと,これを無視するか
どうか聞いてきます.
まちがったチェックサムで正常に動いてしまうのは,本当に意味がありませんね.

--
Ochiai Takushi<jo2oxl@jarl.com>(落合 卓史)
call sign:JO2OXL
QTH:静岡県駿東郡清水町(JCG:18009)

----- Original Message -----
件名 : [jamsat-bb:5001] 質問:軌道要素の Checksum

 軌道要素 Two-Line Element Set Format の末尾(行の右端)にあるチェック
> サムの意味が判りません。どなたか時間のあるときにお教しえ願います。
>
>                               2000/ 1/28
>                                   7N1JVW 藤田忠義  横浜市緑区
>                                     E-mail: FA7T-FJT@asahi-net.or.jp
> FO-20
> 1 20480U 90013C   00019.45637539  .00000011  00000-0  93132-4 0  1984
> 2 20480  99.0296 178.0611 0541268  34.4145 329.0788 12.83262090466075
> FO-29
> 1 24278U 96046B   00020.81901022  .00000047  00000-0  87403-4 0  3028
> 2 24278  98.5864 308.1337 0350517 250.8247 105.4650 13.52698137169236
>
> 上記例のばあい右端(69桁目)の数値
>     4
>     5
>     8
>     6
> がそれぞれの行の Checksum と解説されていますが、この数値はどのように
>  "決まる" のでしょうか? ----->質問:1

> http://celestrak.com/columns/v04n03/index.html
>
> の [Satellite Times] には
>
>        Frequently Asked Questions:
>        Two-Line Element Set Format
>
> があって、checksum を含む各項目の英文解説が入っています。そして69桁目
> (行の右端)にあるチェックサムの意味を
>
>     69   Checksum (Modulo 10)
>        (Letters, blanks, periods, plus signs = 0; minus signs =1)
>
> のように記述してありますが、不勉強で私にはよく判りません。
>
>
> また試しに、いつも使っている軌道要素から7衛星をえらび、Checksum の数値を
> すべて "0" に書き換え、軌道計算ソフトQT98 Ver 4.0J に読み込んで実行しまし
> たが、読み込み動作も、計算結果も変わりなく OK でした。
> これでは、Checksum の意味がないと思いますが? ----->質問:2

*[jamsat-bb:5004]において

  チェックサムについての私の理解は以下の通りです。

FO-20
1 20480U 90013C   00019.45637539  .00000011  00000-0  93132-4 0  1984
2 20480  99.0296 178.0611 0541268  34.4145 329.0788 12.83262090466075

上記の2-line形式の軌道要素の場合、最初の行では、各数字を一桁の数字と見て、

1+2+4+8+9+1+3+1+9+4+5+6+3+7+5+3+9+1+1+1+9+3+1+3+2+1+4+1+9+8=124

と計算(足し算:sum)します。
ここで、英文字・ブランク・ピリオドは「0」、マイナス符号は「1」とします。

最後に得られた合計の下一桁(この場合は4)がチェックサム値となります。

チェックサムは誤り検出の一つの方法で、比較的簡単に計算できるので用いられています。

QT98 4.0Jでチェックサム値を変更しても結果に変わりが無かったのは、QT98 4.0Jでは
チェックサムの計算による軌道要素の信頼性の確認を省略しているためだと思われます。

藤田さん、jamsat-bb:5000 おめでとうございます。

何か貰えると良いですね。

ではまた。

********************************************************
I support World Wide Fund for Nature(WWF) Japan.
--------------------------------------------------------
   イケダヒロト    E-mail    :   hirotoi@attglobal.net
   池田   弘人               :   JI1OWP@jamsat.or.jp

********************************************************
-------------------  FO-29(JAS-2)のテレメトリに関する情報  ------------------------ 
 ==================================================================================

 3)JARL のホームページに運用予定が記載されていましたのでご紹介します.
       ( http://www.jarl.or.jp/Japanese/3_Fuji/uy.htm )

        ■ ふじ3号/FOー29/JAS-2 ■  
   
     *** 運用予定について ***
    
  01月17日 〜 01月31日   アナログ系運用
  02月01日 〜 02月06日   デジタル系1200bpsメールボックス運用
  02月07日 〜 02月21日   アナログ系運用
  02月22日 〜 02月27日   デジタル系1200bpsメールボックス運用
  02月28日 〜 03月05日   アナログ系運用

 *なお,運用予定は都合により変更することがありますのでご了承願います。

 照会先 : lab@jarl.or.jp

 最新の情報はテレホンサービス(:03−3942−1000)をお聞きください。
   
 以後の運用に付きましては2月下旬にお知らせいたします。

-----------------------    FO-20(JAS-1b)道要素   -------------------------------
 4)
 ■ 軌道要素1 :出典はFO-29「ふじ3号」に同じ.
  
  FO-20
 1 20480U 90013C   00023.97812117 -.00000019  00000-0  27371-4 0  1995
 2 20480  99.0304 181.7269 0541046  24.2016 338.3514 12.83261942466652
 
 ■ 軌道要素2 :出典はFO-29「ふじ3号」に同じ.
               
  Satellite: FO-20
 Catalog number: 20480
 Epoch time:      00023.97812117
 Element set:     199
 Inclination:       99.0304 deg
 RA of node:       181.7269 deg
 Eccentricity:    0.0541046
 Arg of perigee:    24.2016 deg
 Mean anomaly:     338.3514 deg
 Mean motion:   12.83261942 rev/day
 Decay rate:       -1.9e-07 rev/day^2
 Epoch rev:           46665
 Checksum:              284
--------------------------------------------------------------------------------
 5)         ■ ふじ2号/FO−20/JAS-1b ■      
            
          「ふじ2号」 現況                                                                                  
             
   JAS-1b/FO-20(ふじ2号)の不具合発生について
    JAS-1b(ふじ2号)のCWテレメトリ信号に,1997年10月12日12時
 (JST)の日本上空通過時,3桁の数字が繰り返されるはずが3個の長音の
  繰り返しとなっているという異常が発見されました。この不具合は次の通過時
  からは回復していましたが13日15時20分の通過時に再び観測されました。
  衛星のアナログ系中継モード動作は異常が無く,正常時のテレメトリ内容からは
  衛星の動作に異常は認められません。従って,直ちに衛星のミッションに影響す
  ることは無いと予想されますので,当面はアナログ系中継モードを継続します。
  衛星は既に打ち上げてから7年8ヶ月を経ておりますので,今後は監視を強化す
  る予定です。アマチュア各位のレポートをお待ちします.   
  
  以上  http://www.jarl.or.jp/Japanese/3_Fuji/fuji.htm
                                           
   =============   JAS-2 (ふじ3号)と現在までの情報   ===========
  
  A.電話によるふじ3号の運用情報
      社団法人日本アマチュア連盟によるサービス
           TEL .   03− 3942 − 1000
  B.アマチュア無線FAXサービス
      JARLによるふじ3号の軌道情報(オービットカレンダー)
         FAX No.  03− 3233 −0055
  C.WWWブラウザで情報を簡単に見れる人のためにJAS−2
     ふじ3号の衛星としての運用されるまでの名前)の概要、打ち上げ
     までの状況、運用中における状況を説明したホームページを紹介し
     ておきます.
     社団法人日本アマチュア無線連盟(JARL)のホームページ

          http://www.jarl.or.jp/Japanese/3_Fuji
 
     宇宙開発事業団(NASDA)ホームページ 
          http://www.nasda.go.jp/
         打上げ衛星 :地球観測プラットフォーム技術衛星(ADEOS) 
                       アマチュア衛星3号(JAS-2)
          http://yyy.tksc.nasda.go.jp/Home/Press/Press-j/jas-2_j.html        

  D.JAMSATによる軌道情報の活用
        JAMSATのホームページまたはjamsat−kepsの軌道要素より
      衛星の軌道情報を得る.
     JAMSATホームページ
               URL    http://www.jamsat.or.jp
       上記ホームページでは各地で行われるアマチュア通信衛星に関する
      ミューティングのお知らせや世界のアマチュア衛星に関する情報が
      満載されています.
 =========================================================================
  
     JAMSATのメンバーのご協力によりJH6MME(高山 秀造)が
    執筆・編集を担当しております.ご指摘の意見、疑問やこのようにしたら
    というアイデアがありましたら小さなことでもかまいませんので気軽に下
    記アドレスまでご連絡ください.jamsat−newsからjas2
    infoへの転載をJH4PHW局坂井さんに担当して頂いております.
  
                  E-mail : jh6mme@jamsat.or.jp : jh4phw@jamsat.or.jp
 ===============================   END  ===============================